Time,TemperatureF,DewpointF,PressureIn,WindDirection,WindDirectionDegrees,WindSpeedMPH,WindSpeedGustMPH,Humidity,HourlyPrecipIn,Conditions,Clouds,dailyrainin,SoftwareType,DateUTC
2016-07-23 00:03:00,66.7,31.6,30.02,North,357,2.0,6.0,27,-99.99,,,0.00,meteobridge,2016-07-23 07:03:00,
2016-07-23 00:09:00,66.7,29.8,30.03,North,353,4.0,5.0,25,-99.99,,,0.00,meteobridge,2016-07-23 07:09:00,
2016-07-23 00:14:00,66.6,29.7,30.03,East,86,0.9,2.0,25,-99.99,,,0.00,meteobridge,2016-07-23 07:14:00,
2016-07-23 00:19:00,66.4,29.5,30.03,WNW,292,0.9,3.0,25,-99.99,,,0.00,meteobridge,2016-07-23 07:19:00,
2016-07-23 00:24:00,66.2,29.3,30.03,South,172,0.0,2.0,25,-99.99,,,0.00,meteobridge,2016-07-23 07:24:00,
2016-07-23 00:29:00,66.0,30.2,30.03,North,356,2.9,3.0,26,-99.99,,,0.00,meteobridge,2016-07-23 07:29:00,
2016-07-23 00:34:00,65.8,28.9,30.03,North,0,2.9,4.0,25,-99.99,,,0.00,meteobridge,2016-07-23 07:34:00,
2016-07-23 00:39:00,65.8,28.9,30.02,North,350,6.9,7.0,25,-99.99,,,0.00,meteobridge,2016-07-23 07:39:00,
2016-07-23 00:44:00,65.5,28.8,30.02,SW,229,2.0,6.0,25,-99.99,,,0.00,meteobridge,2016-07-23 07:44:00,
2016-07-23 00:49:00,65.5,29.7,30.02,South,176,0.9,3.0,26,-99.99,,,0.00,meteobridge,2016-07-23 07:49:00,
2016-07-23 00:54:00,65.1,29.3,30.03,ESE,121,0.9,2.0,26,-99.99,,,0.00,meteobridge,2016-07-23 07:54:00,
2016-07-23 00:59:00,64.8,29.1,30.03,South,172,0.0,2.0,26,-99.99,,,0.00,meteobridge,2016-07-23 07:59:00,
2016-07-23 01:04:00,64.6,29.8,30.03,SW,229,0.0,2.0,27,-99.99,,,0.00,meteobridge,2016-07-23 08:04:00,
2016-07-23 01:09:00,64.2,28.6,30.04,ESE,121,0.0,0.0,26,-99.99,,,0.00,meteobridge,2016-07-23 08:09:00,
2016-07-23 01:14:00,64.0,27.5,30.04,ESE,116,0.9,1.0,25,-99.99,,,0.00,meteobridge,2016-07-23 08:14:00,
2016-07-23 01:19:00,63.9,28.2,30.04,SW,220,0.0,0.0,26,-99.99,,,0.00,meteobridge,2016-07-23 08:19:00,
2016-07-23 01:24:00,63.7,30.0,30.03,South,175,0.0,0.0,28,-99.99,,,0.00,meteobridge,2016-07-23 08:24:00,
2016-07-23 01:30:00,63.3,28.8,30.03,WSW,257,0.0,0.0,27,-99.99,,,0.00,meteobridge,2016-07-23 08:30:00,
2016-07-23 01:35:00,63.0,29.3,30.03,SW,219,0.0,0.0,28,-99.99,,,0.00,meteobridge,2016-07-23 08:35:00,
2016-07-23 01:40:00,62.8,28.2,30.03,SSE,160,0.0,0.0,27,-99.99,,,0.00,meteobridge,2016-07-23 08:40:00,
2016-07-23 01:42:00,62.6,29.1,30.03,WNW,296,2.0,2.0,28,-99.99,,,0.00,meteobridge,2016-07-23 08:42:00,
2016-07-23 01:47:00,62.2,28.8,30.03,West,271,0.0,2.0,28,-99.99,,,0.00,meteobridge,2016-07-23 08:47:00,
2016-07-23 01:52:00,62.2,27.9,30.03,North,352,2.0,2.0,27,-99.99,,,0.00,meteobridge,2016-07-23 08:52:00,
2016-07-23 01:57:00,62.1,27.7,30.03,WNW,289,0.9,2.0,27,-99.99,,,0.00,meteobridge,2016-07-23 08:57:00,
2016-07-23 02:02:00,61.9,26.6,30.03,SSE,155,0.9,5.0,26,-99.99,,,0.00,meteobridge,2016-07-23 09:02:00,
2016-07-23 02:07:00,61.7,27.3,30.03,SSW,203,0.9,5.0,27,-99.99,,,0.00,meteobridge,2016-07-23 09:07:00,
2016-07-23 02:12:00,61.5,27.1,30.03,North,353,2.0,2.0,27,-99.99,,,0.00,meteobridge,2016-07-23 09:12:00,
2016-07-23 02:17:00,61.3,27.1,30.03,SW,219,2.0,3.0,27,-99.99,,,0.00,meteobridge,2016-07-23 09:17:00,
2016-07-23 02:22:00,61.2,27.0,30.03,North,0,0.9,2.0,27,-99.99,,,0.00,meteobridge,2016-07-23 09:22:00,
2016-07-23 02:27:00,61.0,25.9,30.04,SSW,213,2.0,5.0,26,-99.99,,,0.00,meteobridge,2016-07-23 09:27:00,
2016-07-23 02:33:00,60.6,26.4,30.04,North,0,2.0,3.0,27,-99.99,,,0.00,meteobridge,2016-07-23 09:33:00,
2016-07-23 02:38:00,60.6,26.4,30.04,North,0,2.0,5.0,27,-99.99,,,0.00,meteobridge,2016-07-23 09:38:00,
2016-07-23 02:43:00,60.3,27.0,30.05,SE,130,2.0,3.0,28,-99.99,,,0.00,meteobridge,2016-07-23 09:43:00,
2016-07-23 02:48:00,60.3,27.0,30.05,SE,128,0.0,2.0,28,-99.99,,,0.00,meteobridge,2016-07-23 09:48:00,
2016-07-23 02:53:00,59.9,25.9,30.05,WSW,256,2.9,4.0,27,-99.99,,,0.00,meteobridge,2016-07-23 09:53:00,
2016-07-23 02:58:00,59.7,26.6,30.04,South,185,0.0,3.0,28,-99.99,,,0.00,meteobridge,2016-07-23 09:58:00,
2016-07-23 03:03:00,59.5,25.5,30.04,SSE,161,0.0,3.0,27,-99.99,,,0.00,meteobridge,2016-07-23 10:03:00,
2016-07-23 03:08:00,59.4,26.2,30.04,NNW,340,2.0,3.0,28,-99.99,,,0.00,meteobridge,2016-07-23 10:08:00,
2016-07-23 03:13:00,59.4,26.2,30.04,ESE,107,0.9,2.0,28,-99.99,,,0.00,meteobridge,2016-07-23 10:13:00,
2016-07-23 03:18:00,59.4,26.2,30.04,SW,227,0.9,3.0,28,-99.99,,,0.00,meteobridge,2016-07-23 10:18:00,
2016-07-23 03:23:00,59.2,26.1,30.04,North,0,4.0,6.0,28,-99.99,,,0.00,meteobridge,2016-07-23 10:23:00,
2016-07-23 03:28:00,58.8,26.6,30.04,North,0,2.0,4.0,29,-99.99,,,0.00,meteobridge,2016-07-23 10:28:00,
2016-07-23 03:33:00,58.8,26.6,30.04,SW,220,2.9,5.0,29,-99.99,,,0.00,meteobridge,2016-07-23 10:33:00,
2016-07-23 03:38:00,58.8,27.5,30.05,North,0,2.9,3.0,30,-99.99,,,0.00,meteobridge,2016-07-23 10:38:00,
2016-07-23 03:44:00,58.6,26.4,30.05,SE,131,0.9,2.0,29,-99.99,,,0.00,meteobridge,2016-07-23 10:44:00,
2016-07-23 03:49:00,58.3,27.9,30.05,SSE,161,2.0,4.0,31,-99.99,,,0.00,meteobridge,2016-07-23 10:49:00,
2016-07-23 03:54:00,58.1,27.7,30.05,South,188,2.0,7.0,31,-99.99,,,0.00,meteobridge,2016-07-23 10:54:00,
2016-07-23 03:59:00,57.9,27.5,30.05,North,0,2.0,5.0,31,-99.99,,,0.00,meteobridge,2016-07-23 10:59:00,
2016-07-23 04:04:00,57.7,27.3,30.05,NW,320,2.0,3.0,31,-99.99,,,0.00,meteobridge,2016-07-23 11:04:00,
2016-07-23 04:09:00,57.6,27.1,30.05,North,0,2.0,3.0,31,-99.99,,,0.00,meteobridge,2016-07-23 11:09:00,
2016-07-23 04:14:00,57.4,27.0,30.05,ESE,119,2.0,4.0,31,-99.99,,,0.00,meteobridge,2016-07-23 11:14:00,
2016-07-23 04:19:00,57.2,26.8,30.05,SE,143,2.0,6.0,31,-99.99,,,0.00,meteobridge,2016-07-23 11:19:00,
2016-07-23 04:24:00,57.0,27.5,30.05,WSW,246,2.0,6.0,32,-99.99,,,0.00,meteobridge,2016-07-23 11:24:00,
2016-07-23 04:29:00,56.8,27.3,30.05,West,281,2.0,3.0,32,-99.99,,,0.00,meteobridge,2016-07-23 11:29:00,
2016-07-23 04:34:00,56.7,27.1,30.05,NW,308,0.9,2.0,32,-99.99,,,0.00,meteobridge,2016-07-23 11:34:00,
2016-07-23 04:39:00,56.5,27.0,30.06,SSW,193,2.9,5.0,32,-99.99,,,0.00,meteobridge,2016-07-23 11:39:00,
2016-07-23 04:44:00,56.5,27.0,30.06,South,185,2.0,7.0,32,-99.99,,,0.00,meteobridge,2016-07-23 11:44:00,
2016-07-23 04:50:00,56.3,27.5,30.06,SE,137,0.9,5.0,33,-99.99,,,0.00,meteobridge,2016-07-23 11:50:00,
2016-07-23 04:55:00,56.1,27.3,30.07,West,265,2.0,5.0,33,-99.99,,,0.00,meteobridge,2016-07-23 11:55:00,
2016-07-23 05:00:00,55.9,27.3,30.07,SW,229,2.9,5.0,33,-99.99,,,0.00,meteobridge,2016-07-23 12:00:00,
2016-07-23 05:05:00,55.8,27.1,30.07,North,0,2.9,3.0,33,-99.99,,,0.00,meteobridge,2016-07-23 12:05:00,
2016-07-23 05:10:00,55.6,27.7,30.08,North,0,0.0,3.0,34,-99.99,,,0.00,meteobridge,2016-07-23 12:10:00,
2016-07-23 05:15:00,55.6,27.7,30.08,North,0,0.9,2.0,34,-99.99,,,0.00,meteobridge,2016-07-23 12:15:00,
2016-07-23 05:20:00,55.2,27.3,30.08,West,265,2.9,6.0,34,-99.99,,,0.00,meteobridge,2016-07-23 12:20:00,
2016-07-23 05:25:00,55.2,27.3,30.08,North,354,2.0,7.0,34,-99.99,,,0.00,meteobridge,2016-07-23 12:25:00,
2016-07-23 05:30:00,55.0,27.1,30.08,North,0,2.0,6.0,34,-99.99,,,0.00,meteobridge,2016-07-23 12:30:00,
2016-07-23 05:35:00,54.9,27.0,30.08,North,0,2.0,6.0,34,-99.99,,,0.00,meteobridge,2016-07-23 12:35:00,
2016-07-23 05:40:00,54.7,27.5,30.10,WNW,282,2.0,2.0,35,-99.99,,,0.00,meteobridge,2016-07-23 12:40:00,
2016-07-23 05:45:00,54.7,27.5,30.10,NNW,340,0.0,3.0,35,-99.99,,,0.00,meteobridge,2016-07-23 12:45:00,
2016-07-23 05:51:00,54.3,27.3,30.10,NW,312,0.9,3.0,35,-99.99,,,0.00,meteobridge,2016-07-23 12:51:00,
2016-07-23 05:56:00,54.3,27.3,30.10,SW,219,0.9,4.0,35,-99.99,,,0.00,meteobridge,2016-07-23 12:56:00,
2016-07-23 06:01:00,54.3,27.3,30.10,ESE,116,0.9,3.0,35,-99.99,,,0.00,meteobridge,2016-07-23 13:01:00,
2016-07-23 06:06:00,54.3,27.3,30.10,NNW,332,0.0,4.0,35,-99.99,,,0.00,meteobridge,2016-07-23 13:06:00,
2016-07-23 06:11:00,54.3,27.3,30.10,West,267,0.9,3.0,35,-99.99,,,0.00,meteobridge,2016-07-23 13:11:00,
2016-07-23 06:16:00,54.3,26.6,30.10,South,175,0.9,6.0,34,-99.99,,,0.00,meteobridge,2016-07-23 13:16:00,
2016-07-23 06:21:00,54.5,26.8,30.10,North,0,2.0,5.0,34,-99.99,,,0.00,meteobridge,2016-07-23 13:21:00,
2016-07-23 06:26:00,54.7,26.8,30.10,WNW,288,2.0,4.0,34,-99.99,,,0.00,meteobridge,2016-07-23 13:26:00,
2016-07-23 06:31:00,54.7,27.5,30.10,WNW,302,2.9,3.0,35,-99.99,,,0.00,meteobridge,2016-07-23 13:31:00,
2016-07-23 06:36:00,54.9,27.7,30.10,SW,220,2.0,3.0,35,-99.99,,,0.00,meteobridge,2016-07-23 13:36:00,
2016-07-23 06:41:00,54.9,28.4,30.12,WSW,244,2.0,3.0,36,-99.99,,,0.00,meteobridge,2016-07-23 13:41:00,
2016-07-23 06:46:00,55.0,28.6,30.12,SSW,210,2.0,4.0,36,-99.99,,,0.00,meteobridge,2016-07-23 13:46:00,
2016-07-23 06:51:00,55.6,29.1,30.12,SSW,205,0.9,5.0,36,-99.99,,,0.00,meteobridge,2016-07-23 13:51:00,
2016-07-23 06:56:00,55.9,29.3,30.12,North,349,2.9,3.0,36,-99.99,,,0.00,meteobridge,2016-07-23 13:56:00,
2016-07-23 07:02:00,56.7,29.3,30.12,NW,313,0.9,3.0,35,-99.99,,,0.00,meteobridge,2016-07-23 14:02:00,
2016-07-23 07:07:00,57.6,30.0,30.12,East,100,0.0,2.0,35,-99.99,,,0.00,meteobridge,2016-07-23 14:07:00,
2016-07-23 07:12:00,58.3,30.0,30.11,ESE,103,0.0,2.0,34,-99.99,,,0.00,meteobridge,2016-07-23 14:12:00,
2016-07-23 07:17:00,58.8,29.8,30.11,East,96,0.0,2.0,33,-99.99,,,0.00,meteobridge,2016-07-23 14:17:00,
2016-07-23 07:22:00,59.5,30.4,30.11,SE,124,0.9,2.0,33,-99.99,,,0.00,meteobridge,2016-07-23 14:22:00,
2016-07-23 07:27:00,60.1,30.2,30.10,ESE,110,0.9,3.0,32,-99.99,,,0.00,meteobridge,2016-07-23 14:27:00,
2016-07-23 07:32:00,61.0,30.9,30.10,SE,133,0.9,1.0,32,-99.99,,,0.00,meteobridge,2016-07-23 14:32:00,
2016-07-23 07:37:00,61.9,31.6,30.10,SSW,213,0.9,3.0,32,-99.99,,,0.00,meteobridge,2016-07-23 14:37:00,
2016-07-23 07:42:00,62.4,31.5,30.12,SSE,157,0.9,2.0,31,-99.99,,,0.00,meteobridge,2016-07-23 14:42:00,
2016-07-23 07:47:00,63.5,32.4,30.12,WSW,239,0.0,3.0,31,-99.99,,,0.00,meteobridge,2016-07-23 14:47:00,
2016-07-23 07:52:00,64.2,32.2,30.12,South,178,0.9,2.0,30,-99.99,,,0.00,meteobridge,2016-07-23 14:52:00,
2016-07-23 07:57:00,64.9,34.3,30.11,WSW,258,0.0,1.0,32,-99.99,,,0.00,meteobridge,2016-07-23 14:57:00,
2016-07-23 08:02:00,65.7,32.5,30.11,South,191,0.0,2.0,29,-99.99,,,0.00,meteobridge,2016-07-23 15:02:00,
2016-07-23 08:07:00,66.0,32.9,30.11,West,263,0.0,1.0,29,-99.99,,,0.00,meteobridge,2016-07-23 15:07:00,
2016-07-23 08:12:00,66.7,33.4,30.09,SSE,165,0.0,2.0,29,-99.99,,,0.00,meteobridge,2016-07-23 15:12:00,
2016-07-23 08:17:00,67.3,34.0,30.09,SE,131,0.9,3.0,29,-99.99,,,0.00,meteobridge,2016-07-23 15:17:00,
2016-07-23 08:23:00,68.2,33.8,30.09,SSE,147,0.0,0.0,28,-99.99,,,0.00,meteobridge,2016-07-23 15:23:00,
2016-07-23 08:28:00,68.9,33.6,30.08,SE,138,0.0,1.0,27,-99.99,,,0.00,meteobridge,2016-07-23 15:28:00,
2016-07-23 08:33:00,69.8,34.3,30.08,ESE,107,0.0,1.0,27,-99.99,,,0.00,meteobridge,2016-07-23 15:33:00,
2016-07-23 08:38:00,70.3,34.7,30.08,East,97,0.9,2.0,27,-99.99,,,0.00,meteobridge,2016-07-23 15:38:00,
2016-07-23 08:43:00,70.9,36.1,30.09,North,353,2.0,2.0,28,-99.99,,,0.00,meteobridge,2016-07-23 15:43:00,
2016-07-23 08:48:00,71.6,35.8,30.09,ESE,116,0.0,1.0,27,-99.99,,,0.00,meteobridge,2016-07-23 15:48:00,
2016-07-23 08:53:00,72.1,34.3,30.09,SSE,148,0.9,1.0,25,-99.99,,,0.00,meteobridge,2016-07-23 15:53:00,
2016-07-23 08:58:00,72.7,35.8,30.08,ESE,109,0.0,1.0,26,-99.99,,,0.00,meteobridge,2016-07-23 15:58:00,
2016-07-23 09:03:00,73.8,34.7,30.08,ESE,106,0.0,1.0,24,-99.99,,,0.00,meteobridge,2016-07-23 16:03:00,
2016-07-23 09:08:00,74.5,35.2,30.06,ESE,110,0.0,1.0,24,-99.99,,,0.00,meteobridge,2016-07-23 16:08:00,
2016-07-23 09:13:00,75.0,35.8,30.06,North,0,0.0,1.0,24,-99.99,,,0.00,meteobridge,2016-07-23 16:13:00,
2016-07-23 09:18:00,75.4,36.1,30.06,East,100,0.0,2.0,24,-99.99,,,0.00,meteobridge,2016-07-23 16:18:00,
2016-07-23 09:23:00,76.1,36.7,30.05,ESE,103,0.9,2.0,24,-99.99,,,0.00,meteobridge,2016-07-23 16:23:00,
2016-07-23 09:28:00,76.6,36.1,30.05,SSE,161,0.9,2.0,23,-99.99,,,0.00,meteobridge,2016-07-23 16:28:00,
2016-07-23 09:33:00,77.2,36.5,30.05,WNW,282,0.0,2.0,23,-99.99,,,0.00,meteobridge,2016-07-23 16:33:00,
2016-07-23 09:38:00,77.9,36.0,30.05,SSW,200,0.0,0.0,22,-99.99,,,0.00,meteobridge,2016-07-23 16:38:00,
2016-07-23 09:43:00,78.4,37.6,30.05,WSW,239,2.0,2.0,23,-99.99,,,0.00,meteobridge,2016-07-23 16:43:00,